www.pogodaiklimat.ru

Погода и климат >> Архив погоды >> Россия >> Якутия >> Тегюльтя


АРХИВ ПОГОДЫ в Тегюльте

Время (UTC), дата Ветер
(напр.,м/с)
 
Видим.   Явления Облачность Т
(С)
Тd
(С)
f
(%)
Тe
(С)
Тes
(С)
Комфортность P
(гПа)
Po
(гПа)
Тmin
(С)
Tmax
(С)
R
(мм)
R24
(мм)
S
(см)
18 10.07 штиль 0 50 км 10/10 1000 м
[Sc]
+16.3 +13.6 84 +16 +16 1007.7 987.5
21 10.07 штиль 0 50 км 10/10 1000 м
[Sc]
+17.1 +14.5 85 +17 +17 1008.7 988.7
00 11.07 штиль 0 50 км 10/10 1000 м
[Sc]
+20.4 +17.1 81 +23 +23 комфорт 1009.5 989.7 +16.0
03 11.07 С 1 50 км 10/10 1000 м
[Sc]
+22.3 +13.3 57 +25 +25 комфорт 1009.9 990.3
06 11.07 СВ 2 50 км 10/6 1000 м
[Sc Cc]
+24.9 +13.9 50 +27 +30 жарко 1009.4 989.9
09 11.07 В 1 50 км слаб. дождь 10/0
[As op]
+21.4 +18.0 81 +26 +26 душно 1009.7 989.9
12 11.07 штиль 0 50 км {дождь} 10/6 1000 м
[Sc]
+19.8 +17.2 85 +22 +22 комфорт 1010.6 990.8 +25.4 6
15 11.07 штиль 0 200 м туман ?/? +16.1 +15.6 97 +16 +16 1008.0 990.8
18 11.07 штиль 0 200 м туман ?/? +15.7 +15.2 97 +15 +15 1008.0 990.8
21 11.07 штиль 0 200 м туман ?/? +15.5 +15.0 97 +15 +15 1011.2 991.0
00 12.07 штиль 0 50 км {туман} ясно +18.1 +16.6 91 +18 +30 опасность
простуды
1012.9 992.9 +15.4
03 12.07 ЮВ 1 50 км 6/6 1000 м
[Cu med, cong]
+26.8 +20.3 68 +33 +39 очень
душно
1009.7 990.3
06 12.07 С 2 50 км 10/8 1000 м
[Cu med, cong Ci fib]
+28.7 +20.0 59 +35 +36 очень
душно
1008.2 989.0
09 12.07 Ю 2 50 км 8/8 1000 м
[Sc]
+29.4 +20.2 58 +36 +37 очень
душно
1008.0 988.3
12 12.07 штиль 0 50 км 6/0
[Ci fib]
+25.3 +17.3 61 +29 +29 душно 1007.9 988.4 +30.1
15 12.07 штиль 0 50 км 6/0
[Ci fib]
+16.7 +13.7 82 +17 +17 1008.8 988.8
18 12.07 штиль 0 50 км 6/0
[Ci fib]
+13.9 +11.5 85 +14 +14 1009.1 988.8
21 12.07 штиль 0 50 км 4/0
[Ci fib]
+14.9 +12.7 87 +15 +17 1009.1 988.9
00 13.07 штиль 0 50 км 3/0
[Ac trans]
+20.1 +15.9 77 +22 +32 комфорт 1008.7 988.7 +13.8
03 13.07 штиль 0 50 км 8/6 600 м
[Cb cap Ci fib]
+29.2 +21.2 62 +37 +43 очень
душно
1007.6 988.5
06 13.07 С 2 50 км 10/6 1000 м
[Sc Ci fib]
+30.4 +21.0 57 +38 +41 очень
душно
1005.9 986.8
09 13.07 ЮВ 2 50 км 10/6 1000 м
[Sc Ci fib]
+29.6 +16.9 46 +33 +34 душно 1004.8 985.7
12 13.07 штиль 0 50 км 10/0
[Ac trans Ci fib]
+23.7 +17.3 67 +28 +28 душно 1006.0 986.5 +13.1
15 13.07 штиль 0 50 км 10/0
[Ac trans Ci fib]
+17.1 +14.1 83 +17 +17 1006.4 986.5
18 13.07 штиль 0 50 км 10/0
[Ac trans Ci fib]
+14.1 +11.7 85 +14 +14 1007.0 986.8
21 13.07 штиль 0 50 км 10/0
[Ac trans Ci fib]
+15.3 +13.0 86 +15 +16 1007.2 987.1
00 14.07 С 3 50 км 8/0
[Ci fib]
+24.4 +17.0 63 +28 +34 душно 1007.4 987.9 +14.0
03 14.07 В 3 50 км 10/0
[Ci fib]
+27.7 +16.7 51 +31 +40 душно 1006.3 987.0
06 14.07 С 4 50 км 10/3 1000 м
[Cu med, cong Ci fib]
+29.0 +17.1 49 +33 +37 очень
душно
1005.3 986.2
09 14.07 В 2 50 км 8/4 1000 м
[Sc Ci fib]
+29.3 +20.4 59 +36 +38 очень
душно
1004.5 985.5
12 14.07 штиль 0 50 км 4/0
[Ac trans Ci fib]
+23.4 +18.2 73 +29 +29 душно 1006.2 986.7 +29.7
15 14.07 штиль 0 50 км 4/0
[Ac trans Ci fib]
+16.1 +13.1 82 +16 +16 1007.1 987.0
18 14.07 штиль 0 50 км 4/0
[Ci fib]
+13.3 +11.0 86 +13 +13 1007.2 987.0
21 14.07 штиль 0 50 км 4/0
[Ci fib]
+13.6 +11.3 86 +13 +15 1007.7 987.4
00 15.07 штиль 0 50 км ясно +22.9 +16.4 67 +28 +39 душно 1008.1 988.5 +12.8
03 15.07 ЮЗ 3 50 км 3/3
[Sc]
+29.3 +19.4 55 +35 +43 очень
душно
1007.7 988.5
06 15.07 С 4 50 км 8/8 600 м
[Cb cap]
+30.5 +16.7 43 +34 +35 очень
душно
1005.6 986.6
09 15.07 С 7 50 км гроза без осадков 10/10 600 м
[Cb cap]
+26.8 +18.2 59 +31 +31 душно 1006.2 986.9
12 15.07 ЮЗ 1 20 км слаб. дождь {гроза} 10/0 600 м
[As op]
+19.8 +16.8 83 +23 +23 комфорт 1008.5 988.6 +31.3 1
15 15.07 штиль 0 4000 м туман местами {дождь} 10/0
[Ci fib]
+16.3 +14.4 89 +16 +16 1008.9 988.9
18 15.07 штиль 0 4000 м туман местами 10/0
[Ci fib]
+13.9 +12.1 89 +13 +13 1009.2 988.9
21 15.07 штиль 0 4000 м туман местами 10/0
[Ci fib]
+13.1 +11.2 88 +13 +14 1010.1 989.8
00 16.07 З 1 50 км {туман} 10/0
[Ci fib]
+19.3 +15.4 78 +22 +30 комфорт 1011.1 991.2 +13.0 0.4
03 16.07 ЮЗ 3 50 км 6/0
[Ci fib]
+24.8 +15.2 55 +28 +37 жарко 1009.8 990.3
06 16.07 С 3 50 км 10/0
[Ac trans Ci fib]
+25.4 +12.2 44 +27 +32 жарко 1008.8 989.3
09 16.07 З 2 50 км 8/0
[Cs]
+24.2 +12.2 47 +26 +28 жарко 1008.1 988.5
12 16.07 штиль 0 50 км 8/0
[Cs]
+18.1 +12.3 69 +18 +18 1010.0 989.1 +26.0
15 16.07 штиль 0 50 км 8/0
[Cs]
+10.3 +7.2 81 +10 +10 1009.9 989.3
18 16.07 штиль 0 50 км 8/0
[Cs]
+5.3 +2.6 83 +4 +4 1010.3 989.4
21 16.07 штиль 0 50 км 8/0
[Cs]
+5.1 +2.7 84 +4 +6 1011.0 990.0
00 17.07 ЮЗ 3 50 км 10/0
[Cs]
+14.7 +9.0 69 +14 +19 1011.4 991.1 +4.7
03 17.07 ЮЗ 3 20 км дым 10/0
[Cs]
+23.4 +12.8 51 +26 +35 жарко 1008.4 988.8
06 17.07 ЮЗ 3 50 км 10/0
[Ci fib]
+26.1 +12.9 44 +28 +34 жарко 1006.5 987.1
09 17.07 З 2 50 км 10/0
[Ci]
+26.3 +11.4 39 +27 +30 жарко 1005.8 986.4
12 17.07 штиль 0 50 км 10/0
[Ci]
+24.2 +15.3 58 +27 +27 жарко 1006.3 986.4 +26.9
15 17.07 штиль 0 50 км 6/0
[Ac trans]
+12.1 +8.6 79 +12 +12 1004.6 984.3

 

Местоположение метеостанции Тегюльтя (Якутия, Россия): широта 60.47 долгота 130.00 высота над уровнем моря 171 м.

В архиве по умолчанию представлена погода в Тегюльте за последнюю неделю. Архивные данные за месяц целиком и за предыдущие месяцы, начиная с января 2011 года, Вы можете получить, выбрав интересующий диапазон дат из раскрывающегося списка и нажав кнопку "Ввод!".


*Определитесь, кто Вы:
робот инопланетянин человек

Внимание! Время в таблицах - всемирное. Для получения местного времени необходимо прибавить поправку, которая равна 9 ч.

Смотрите также архив погоды в соседних городах и на ближайших метеорологических станциях:

Погода в Амге (Якутия, Россия) (114 км)
Погода в Покровске (Якутия, Россия) (122 км)
Погода в Якутске (Якутия, Россия) (172 км)
Погода в Буяге (Якутия, Россия) (189 км)
Погода в Усть-Миле (Якутия, Россия) (191 км)
Погода в Учуре (Якутия, Россия) (196 км)
Погода в Угино (Якутия, Россия) (221 км)
Погода в Чурапче (Якутия, Россия) (222 км)
Погода в Усть-Мае (Якутия, Россия) (242 км)
Погода в Намцах (Якутия, Россия) (251 км)

Пояснения к столбцам:

Ветер - указаны скорость ветра в м/с - средняя за 10 мин, порывы в срок и между сроками (в фигурных скобках) и направление, откуда дует ветер: С - северный, СВ - северо-восточный, В - восточный, ЮВ - юго-восточный, Ю - южный, ЮЗ - юго-западный, З - западный, СЗ - северо-западный.
Видимость - горизонтальная дальность видимости в метрах или километрах. При видимости от 1 до 10 км при отсутствии осадков обычно наблюдается дымка, при ухудшении видимости до 1 км и менее - туман. В сухую погоду видимость может ухудшаться дымом, пылью или мглою.
Явления - указаны атмосферные явления, наблюдавшиеся в срок или в последний час перед сроком; фигурными скобками обозначены явления, наблюдавшиеся между сроками (за 1-3 часа до срока); квадратными скобками обозначены град или гололедные отложения с указанием их диаметра в мм.
Облачность - указаны через наклонную черту общая и нижняя облачность в баллах и высота нижней границы облаков в метрах; квадратными скобками обозначены формы облаков: Ci - перистые, Cs - перисто-слоистые, Cc - перисто-кучевые, Ac - высококучевые, As - высокослоистые, Sc - слоисто-кучевые, Ns - слоисто-дождевые, Cu - кучевые, Cb - кучево-дождевые. Подробнее классификацию облаков см. в Атласе облаков (PDF).
T - Температура воздуха - температура, измеренная на высоте 2 м над землей.
Td - Температура точки росы - температура, при понижении до которой содержащийся в воздухе водяной пар достигнет насыщения.
f - Относительная влажность воздуха - влажноcть воздуха, измеренная на высоте 2 м над землей.
Te - Эффективная температура - температура, которую ощущает одетый по сезону человек в тени. Характеристика душности погоды. При расчете учитывается влияние влажности воздуха и скорости ветра на теплоощущения человека.
Tes - Эффективная температура на солнце - температура, которую ощущает человек, с поправкой на солнечный нагрев. Характеристика знойности погоды. Зависит от высоты солнца над горизонтом, облачности и скорости ветра. Ночью, в пасмурную погоду, а также при ветре 12 м/с и более поправка равна нулю.
P - Атмосферное давление - приведенное к уровню моря атмосферное давление.
Po - Атмосферное давление - измеренное на уровне метеостанции атмосферное давление.
Tmin - Минимальная температура - минимум температуры воздуха на высоте 2 м над землей.
Tmax - Максимальная температура - максимум температуры воздуха на высоте 2 м над землей.
R - Количество осадков - Количество выпавших осадков за период времени, мм. При наведении курсора мыши на число - период времени, за который выпало указанное количество осадков.
R24 - Количество осадков - Количество выпавших осадков за 24 часа, мм.
S - Снежный покров - Высота снежного покрова, см. При наведении курсора мыши на число - состояние снежного покрова и степень покрытия местности в баллах.